Location: Galaxy Quest Observatory
(44.3404°N, 69.0569°W)
Time: 04:54:41
(UTC-04:00)

N. Korean satellite - Pass Details

Date: 02 April 2020
Orbit: 455 x 505 km, 97.2° (Epoch: 30 May)

Event Time Altitude Azimuth Distance (km) Brightness Sun altitude
Rises 05:29:26 0° 29° (NNE) 2,497 10.9 -8.7°
Reaches altitude 10° 05:32:02 10° 50° (NE) 1,610 10.4 -8.3°
Maximum altitude 05:34:23 17° 93° (E) 1,225 9.8 -7.9°
Drops below altitude 10° 05:36:43 10° 136° (SE) 1,593 9.6 -7.5°
Sets 05:39:15 0° 157° (SSE) 2,459 10.3 -7.0°
